Patuxent River, MD

12:13 PM EDT on May 24, 2017 (GMT -0400)
Patuxent River Naval Air Station

Weather History for KNHK - August, 2013

Change the Weather History Date:

Wednesday, August 28, 2013

  Actual Average Record
Temperature  
Mean Temperature 77 °F -  
Max Temperature 82 °F 84 °F 92 °F (1980)
Min Temperature 72 °F 69 °F 55 °F (1986)
Cooling Degree Days 12    
Growing Degree Days 27 (Base 50)    
Moisture  
Dew Point 71 °F    
Average Humidity 85    
Maximum Humidity 94    
Minimum Humidity 69    
Precipitation  
Precipitation 0.04 in - - ()
Sea Level Pressure  
Sea Level Pressure 29.87 in    
Wind  
Wind Speed 5 mph (WSW)    
Max Wind Speed 9 mph    
Max Gust Speed -    
Visibility 7 miles    
Events Rain    
Averages and records for this station are not official NWS values.
T = Trace of Precipitation, MM = Missing Value Source: NWS Daily Summary

Daily Weather History Graph

Daily Weather History Graph

Search for Another Location

Airport or City:

Trip Planner

Search our weather history database for the weather conditions in past years. The results will help you decide how hot, cold, wet, or windy it might be!

Date:

Astronomy

Aug. 28, 2013 Rise Set
Actual Time 6:31 AM EDT 7:41 PM EDT
Civil Twilight 6:04 AM EDT 8:08 PM EDT
Nautical Twilight 5:32 AM EDT 8:40 PM EDT
Astronomical Twilight 4:58 AM EDT 9:14 PM EDT
Moon No Moon Rise 2:14 PM EDT (8/28)
Length of Visible Light 14h 03m
Length of Day
13h 09m
Waning Gibbous, 47% of the Moon is Illuminated
Aug 28
Waning Gibbous
Sep 5
New
Sep 12
First Quarter
Sep 19
Full
Sep 26
Last Quarter

Hourly Weather History & Observations

Time (EDT) Temp. Heat Index Dew Point Humidity Pressure Visibility Wind Dir Wind Speed Gust Speed Precip Events Conditions
12:52 AM 75.9 °F - 72.0 °F 87% 29.92 in 6.0 mi West 5.8 mph - N/A   Mostly Cloudy
1:52 AM 75.9 °F - 72.0 °F 87% 29.90 in 7.0 mi WNW 3.5 mph - N/A   Clear
2:52 AM 72.0 °F - 70.0 °F 93% 29.88 in 5.0 mi WNW 3.5 mph - N/A   Clear
3:52 AM 73.9 °F - 71.1 °F 91% 29.87 in 7.0 mi WSW 3.5 mph - N/A   Clear
4:52 AM 73.9 °F - 71.1 °F 91% 29.88 in 7.0 mi WSW 4.6 mph - N/A   Partly Cloudy
5:02 AM 73.4 °F - 71.6 °F 94% 29.88 in 6.0 mi West 4.6 mph - N/A   Overcast
5:52 AM 72.0 °F - 68.0 °F 87% 29.88 in 8.0 mi WNW 4.6 mph - N/A   Mostly Cloudy
6:52 AM 72.0 °F - 69.1 °F 91% 29.90 in 6.0 mi West 4.6 mph - N/A   Mostly Cloudy
7:52 AM 75.9 °F - 69.1 °F 79% 29.91 in 7.0 mi West 5.8 mph - N/A   Overcast
8:52 AM 79.0 °F - 69.1 °F 72% 29.91 in 7.0 mi WNW 5.8 mph - 0.00 in   Overcast
9:52 AM 80.1 °F 83.2 °F 70.0 °F 71% 29.91 in 7.0 mi NW 8.1 mph - N/A   Overcast
10:34 AM 80.6 °F 83.9 °F 69.8 °F 70% 29.91 in 6.0 mi NW 8.1 mph - 0.00 in Rain Light Rain
10:52 AM 81.0 °F 84.9 °F 71.1 °F 72% 29.92 in 6.0 mi NW 8.1 mph - 0.00 in Rain Light Rain
11:52 AM 79.0 °F - 72.0 °F 79% 29.91 in 5.0 mi WNW 5.8 mph - 0.00 in Rain Light Rain
12:52 PM 80.1 °F 84.2 °F 73.0 °F 79% 29.89 in 5.0 mi Variable 4.6 mph - 0.00 in Rain Light Rain
1:16 PM 80.6 °F 85.4 °F 73.4 °F 79% 29.88 in 5.0 mi SW 8.1 mph - 0.00 in   Haze
1:52 PM 82.0 °F 86.3 °F 71.1 °F 69% 29.86 in 6.0 mi SW 8.1 mph - 0.00 in   Haze
2:39 PM 80.6 °F 84.6 °F 71.6 °F 74% 29.87 in 6.0 mi WSW 9.2 mph - 0.00 in Rain Light Rain
2:52 PM 79.0 °F - 71.1 °F 77% 29.87 in 7.0 mi West 8.1 mph - 0.00 in Rain Light Rain
3:52 PM 78.1 °F - 72.0 °F 81% 29.86 in 7.0 mi West 9.2 mph - 0.00 in Rain Light Rain
4:52 PM 75.0 °F - 72.0 °F 90% 29.86 in 7.0 mi WSW 6.9 mph - 0.03 in Rain Light Rain
5:30 PM 75.2 °F - 71.6 °F 89% 29.84 in 8.0 mi SW 4.6 mph - 0.00 in   Mostly Cloudy
5:52 PM 75.0 °F - 71.1 °F 87% 29.85 in 8.0 mi Calm Calm - 0.00 in   Overcast
6:46 PM 73.4 °F - 71.6 °F 94% 29.84 in 8.0 mi WSW 4.6 mph - 0.00 in Rain Light Rain
6:52 PM 73.9 °F - 72.0 °F 93% 29.85 in 8.0 mi WSW 6.9 mph - 0.00 in Rain Light Rain
7:52 PM 73.9 °F - 71.1 °F 91% 29.85 in 8.0 mi Calm Calm - 0.01 in   Overcast
8:52 PM 73.9 °F - 72.0 °F 93% 29.86 in 8.0 mi ESE 3.5 mph - N/A   Overcast
9:52 PM 73.9 °F - 71.1 °F 91% 29.85 in 10.0 mi South 4.6 mph - N/A   Overcast
10:18 PM 73.4 °F - 71.6 °F 94% 29.85 in 9.0 mi SSE 3.5 mph - 0.00 in Rain Light Rain
10:47 PM 73.4 °F - 69.8 °F 88% 29.85 in 10.0 mi Calm Calm - 0.00 in   Overcast
10:52 PM 73.9 °F - 71.1 °F 91% 29.85 in 10.0 mi South 3.5 mph - 0.00 in   Overcast
11:47 PM 73.4 °F - 69.8 °F 88% 29.84 in 7.0 mi SSW 4.6 mph - 0.00 in Rain Light Rain
11:52 PM 73.0 °F - 70.0 °F 90% 29.83 in 7.0 mi SSW 4.6 mph - 0.00 in Rain Light Rain